Weather History for Prescott, AZ

Change the Weather History Date:

Friday, September 5, 2014

  Actual Average Record
Temperature  
Mean Temperature 70 °F 71 °F  
Max Temperature 81 °F 85 °F 95 °F (1979)
Min Temperature 58 °F 57 °F 43 °F (1985)
Degree Days  
Heating Degree Days 0    
Month to date heating degree days 0  
Since 1 July heating degree days 3  
Cooling Degree Days 5    
Month to date cooling degree days 33  
Year to date cooling degree days 927  
Growing Degree Days 20 (Base 50)    
Moisture  
Dew Point 57 °F    
Average Humidity 68    
Maximum Humidity 90    
Minimum Humidity 42    
Precipitation  
Precipitation 0.19 in 0.06 in 0.74 in (1976)
Month to date precipitation 0.47 0.31  
Year to date precipitation 7.94 9.97  
Sea Level Pressure  
Sea Level Pressure 29.97 in    
Wind  
Wind Speed 5 mph (South)    
Max Wind Speed 20 mph    
Max Gust Speed 25 mph    
Visibility 9 miles    
Events Rain , Thunderstorm    
T = Trace of Precipitation, MM = Missing Value Source: NWS Daily Summary

Daily Weather History Graph

Daily Weather History Graph

Search for Another Location

Airport:

Trip Planner

Search our weather history database for the weather conditions in past years. The results will help you decide how hot, cold, wet, or windy it might be!

Date:

Astronomy

Sep. 05, 2014 Rise Set
Actual Time 6:05 AM MST 6:50 PM MST
Civil Twilight 5:40 AM MST 7:15 PM MST
Nautical Twilight 5:09 AM MST 7:46 PM MST
Astronomical Twilight 4:38 AM MST 8:16 PM MST
Moon 4:16 PM MST (9/5) 2:10 AM MST (9/5)
Length of Visible Light 13h 35m
Length of Day
12h 44m
Waxing Gibbous, 85% of the Moon is Illuminated
Sep 5
Waxing Gibbous
Sep 8
Full
Sep 15
Last Quarter
Sep 23
New
Oct 1
First Quarter

Hourly Weather History & Observations

Time (MST) Temp. Heat Index Dew Point Humidity Pressure Visibility Wind Dir Wind Speed Gust Speed Precip Events Conditions
12:03 AM 64.0 °F - 55.9 °F 75% 30.13 in 1.8 mi NNW 5.8 mph 24.2 mph 0.12 in Rain , Thunderstorm Heavy Thunderstorms and Rain
12:18 AM 62.1 °F - 57.0 °F 84% 30.13 in 3.0 mi ESE 10.4 mph - 0.22 in Rain , Thunderstorm Thunderstorms and Rain
12:40 AM 62.1 °F - 57.9 °F 86% 30.12 in 9.0 mi ESE 9.2 mph - 0.23 in Rain , Thunderstorm Light Rain
12:53 AM 63.0 °F - 57.9 °F 84% 29.90 in 10.0 mi ESE 6.9 mph - 0.23 in Thunderstorm Overcast
1:11 AM 62.1 °F - 57.0 °F 84% 30.12 in 10.0 mi East 8.1 mph - N/A   Overcast
1:53 AM 62.1 °F - 57.9 °F 86% 29.91 in 10.0 mi Calm Calm - N/A   Clear
2:53 AM 61.0 °F - 57.0 °F 87% 29.90 in 10.0 mi SSW 8.1 mph - N/A   Clear
3:53 AM 61.0 °F - 55.9 °F 83% 29.90 in 10.0 mi SSW 6.9 mph - N/A   Clear
4:53 AM 61.0 °F - 55.9 °F 83% 29.90 in 10.0 mi Calm Calm - N/A   Clear
5:53 AM 60.1 °F - 55.9 °F 86% 29.92 in 10.0 mi Calm Calm - N/A   Clear
6:53 AM 61.0 °F - 55.9 °F 83% 29.95 in 10.0 mi Calm Calm - N/A   Clear
7:53 AM 64.9 °F - 57.9 °F 78% 29.95 in 10.0 mi Calm Calm - N/A   Clear
8:53 AM 70.0 °F - 57.9 °F 65% 29.95 in 10.0 mi NNE 3.5 mph - N/A   Clear
9:53 AM 73.0 °F - 59.0 °F 61% 29.96 in 10.0 mi North 4.6 mph - N/A   Partly Cloudy
10:53 AM 75.9 °F - 57.9 °F 54% 29.95 in 10.0 mi Variable 3.5 mph - N/A   Clear
11:53 AM 78.1 °F - 59.0 °F 52% 29.95 in 10.0 mi NW 5.8 mph - N/A   Scattered Clouds
12:53 PM 80.1 °F 80.6 °F 57.9 °F 47% 29.93 in 10.0 mi NNE 6.9 mph - N/A   Scattered Clouds
1:36 PM 79.0 °F - 57.0 °F 47% 30.16 in 10.0 mi Variable 4.6 mph - N/A Thunderstorm Thunderstorm
1:53 PM 73.0 °F - 55.9 °F 55% 29.95 in 10.0 mi South 13.8 mph 21.9 mph N/A Thunderstorm Thunderstorm
3:53 PM 77.0 °F - 57.9 °F 52% 29.92 in 10.0 mi South 11.5 mph - 0.00 in   Clear
4:53 PM 78.1 °F - 53.1 °F 42% 29.91 in 10.0 mi SSW 6.9 mph - N/A   Scattered Clouds
5:53 PM 78.1 °F - 57.0 °F 48% 29.91 in 10.0 mi Calm Calm - N/A   Scattered Clouds
6:53 PM 73.9 °F - 55.9 °F 53% 29.92 in 10.0 mi WSW 5.8 mph - N/A   Clear
7:53 PM 70.0 °F - 55.9 °F 61% 29.94 in 10.0 mi South 6.9 mph - N/A   Clear
8:53 PM 66.9 °F - 57.0 °F 70% 29.96 in 10.0 mi South 8.1 mph - N/A   Clear
9:53 PM 66.0 °F - 55.9 °F 70% 29.97 in 10.0 mi South 8.1 mph - N/A   Clear
10:53 PM 64.9 °F - 54.0 °F 68% 29.96 in 10.0 mi South 6.9 mph - N/A   Scattered Clouds
11:53 PM 63.0 °F - 53.1 °F 70% 29.96 in 10.0 mi SSW 3.5 mph - N/A   Clear